Location: Gwimbach
(52.0000°N, 0.3167°E)
Time: 07:32:17
(UTC+00:00)

Daily predictions for brighter satellites

Satellite Brightness Start Highest point End
(mag) Time Altitude Azimuth Time Altitude Azimuth Time Altitude Azimuth
Cosmos 1452 Rocket 3.6 17:05:17 10° SSW 17:10:33 87° ESE 17:15:53 10° NNE
Cosmos 1606 Rocket 4.1 17:09:39 10° SSE 17:13:42 38° E 17:17:48 10° NNE
Helios 1A Rocket 4.0 17:10:35 10° ESE 17:13:56 25° ENE 17:17:18 10° N
CZ-4B R/B 3.4 17:12:12 10° SSE 17:17:48 81° WSW 17:23:20 10° NNW
Cosmos 1689 Rocket 3.9 17:18:26 10° ENE 17:20:03 14° E 17:21:40 10° SE
Cosmos 2098 Rocket 4.4 17:17:22 10° NNW 17:20:12 31° W 17:22:48 10° SSW
Okean-O 3.6 17:16:41 10° ESE 17:20:25 27° ENE 17:24:10 10° N
Cosmos 1656 Rocket 4.3 17:16:08 10° SW 17:21:39 58° NW 17:27:16 10° NNE
AQUARIUS 4.2 17:17:50 10° SSE 17:22:20 89° WSW 17:26:53 10° NNW
NOSS 2-2 (E) 4.5 17:17:07 10° NW 17:22:27 89° NE 17:29:55 10° SE
Cosmos 1400 Rocket 3.9 17:22:06 10° SE 17:25:26 24° E 17:28:46 10° NE
Meteor 1-16 Rocket 4.4 17:20:43 10° SSW 17:26:20 77° WNW 17:31:48 10° N
Cosmos 2227 Rocket 2.4 17:21:27 10° NNW 17:27:00 51° NE 17:32:30 10° SE
Cosmos 1908 3.5 17:23:25 10° SSW 17:27:15 75° W 17:31:10 10° N
Cosmos 2266 Rocket 4.4 17:21:10 10° NNW 17:27:23 72° W 17:33:40 10° S
Cosmos 2058 4.2 17:24:49 10° NNE 17:27:57 21° ENE 17:31:03 10° ESE
Meteor 2-16 Rocket 4.5 17:22:11 10° N 17:28:15 63° ENE 17:34:17 10° SSE
H-2A R/B 3.2 17:24:10 10° ESE 17:28:28 25° ENE 17:32:47 10° N
Cosmos 1892 3.7 17:26:08 10° N 17:29:25 25° ENE 17:32:42 10° SE
GEOS 3 Rocket 4.1 17:25:32 10° ESE 17:30:35 44° NNE 17:35:43 10° NW
CZ-4 R/B 2.3 17:27:24 10° ESE 17:30:39 26° ENE 17:33:55 10° N
Cosmos 2263 Rocket 3.7 17:27:58 10° NNW 17:31:56 19° NNE 17:35:34 11° ENE
Cosmos 1408 4.0 17:30:53 10° NNE 17:33:34 19° ENE 17:36:14 10° ESE
Cosmos 1356 Rocket 4.4 17:29:50 10° SSW 17:34:02 53° WNW 17:38:17 10° N
BREEZE-M DEB (TANK) 4.0 17:30:29 10° WSW 17:34:04 82° SSE 17:46:14 12° ENE
CZ-4C R/B 4.4 17:31:16 10° N 17:34:20 38° WNW 17:37:26 10° SW
BREEZE-M R/B 4.4 17:22:58 10° WSW 17:34:20 65° S 17:37:09 12° E
NOSS 3-4 (A) 4.3 17:31:55 10° NW 17:38:06 40° NNE 17:44:11 13° E
NOSS 3-4 (C) 4.3 17:32:02 10° NW 17:38:11 40° NNE 17:44:15 13° E
CZ-4C R/B 3.7 17:32:58 10° NW 17:38:29 32° N 17:44:25 12° ENE
NOSS 2-2 (D) 4.5 17:34:47 10° NW 17:40:02 86° SW 17:47:23 10° SE
Cosmos 1953 Rocket 3.5 17:36:00 10° N 17:40:26 79° E 17:44:53 10° SSE
Cosmos 1300 2.7 17:39:57 10° S 17:43:41 57° E 17:47:28 10° NNE
SL-4 R/B 1.6 17:42:46 10° W 17:46:17 87° S 17:49:04 17° E
Cosmos 2058 Rocket 3.5 17:42:49 10° SSE 17:47:03 42° E 17:51:20 10° NNE
Cosmos 1697 Rocket 4.0 17:43:20 10° SE 17:47:05 19° E 17:49:37 14° ENE
Cosmos 1331 Rocket 3.9 17:42:19 10° SSW 17:47:27 75° ESE 17:52:37 10° NNE
Cosmos 1346 Rocket 3.5 17:44:44 10° N 17:48:21 31° ENE 17:51:56 10° SE
IRS-1C Rocket 4.0 17:44:10 10° SSE 17:49:25 74° ENE 17:54:42 10° NNW
CZ-2D R/B 3.4 17:45:48 10° SE 17:49:29 49° ENE 17:53:11 10° N
USA 305 2.9 17:45:41 10° WNW 17:50:01 86° NNE 17:53:27 16° ESE
SeaSat 1 3.3 17:46:27 13° E 17:50:06 31° NE 17:54:24 10° NNW
Cosmos 1825 3.5 17:47:41 10° NNE 17:50:33 20° ENE 17:51:38 18° E
Cosmos 44 3.3 17:50:18 10° SSW 17:54:45 58° SE 17:59:04 12° NE
USA 306 2.9 17:52:06 10° WNW 17:56:24 89° N 17:59:35 18° ESE
Cosmos 1315 Rocket 4.2 17:53:51 10° SE 17:56:20 19° E 17:56:20 19° E
NOAA 11 4.5 17:51:31 10° S 17:56:57 74° WSW 18:02:25 10° NNW
USA 215 3.5 17:51:39 15° E 17:57:06 60° N 18:03:31 10° WNW
SAR-Lupe-4 3.5 17:54:46 10° NNE 17:58:21 62° ESE 18:01:54 10° S
ERS-2 2.3 17:54:48 10° NNE 17:58:28 74° WNW 18:02:06 10° SSW
BREEZE-M R/B 3.5 17:56:38 10° W 18:00:13 69° S 18:05:18 17° E
ATLAS 2AS CENTAUR R/B 3.5 17:52:53 10° NW 18:00:13 43° NNE 18:05:17 18° E
Cosmos 968 Rocket 3.4 17:57:19 10° NNW 18:02:34 70° ENE 18:07:44 10° SSE
Cosmos 1340 2.5 17:59:34 10° NNW 18:03:23 82° ENE 18:07:10 10° SSE
Cosmos 2297 Rocket 2.3 18:01:17 10° NNW 18:06:59 79° WSW 18:12:38 10° SSE
COSMO-SKYMED 1 2.5 18:02:47 10° NNE 18:07:08 62° ESE 18:11:26 10° S
HJ-1C 4.3 18:07:27 27° ENE 18:07:35 27° ENE 18:10:29 10° N
MOS 1 Rocket 4.2 18:03:44 10° NE 18:07:41 27° E 18:11:48 10° SSE
Cosmos 2369 Rocket 4.2 18:03:27 10° W 18:08:02 24° NW 18:12:39 10° NNE
Cosmos 1076 Rocket 4.0 18:04:28 10° N 18:08:25 35° ENE 18:11:35 14° SE
H-2A R/B 3.9 18:05:02 10° N 18:08:45 31° WNW 18:12:24 10° SW
In-Cosmos 22 Rocket 4.0 18:04:06 10° NNW 18:09:29 83° ENE 18:14:56 10° SSE
Cosmos 1980 Rocket 4.1 18:06:44 10° SE 18:07:19 12° SE 18:07:19 12° SE
Aureole 3 Rocket 3.2 18:08:28 10° S 18:12:35 72° E 18:18:24 10° NNE
Cosmos 1110 Rocket 4.4 18:10:59 10° SW 18:16:11 64° WNW 18:21:24 10° NNE
SAR-Lupe-1 4.0 18:12:38 10° NNE 18:16:15 88° WNW 18:19:51 10° SSW
S3M 4.1 18:10:55 10° SSE 18:16:42 47° E 18:22:34 10° NNE
CSL-04 Debris 4.3 18:11:39 10° SE 18:16:57 55° ENE 18:22:17 10° N
Cosmos 1302 Rocket 3.9 18:13:12 10° SSW 18:18:26 73° ESE 18:23:45 10° NNE
SL-08 ROCKET BODY 4.4 18:13:02 10° N 18:19:09 74° E 18:25:19 10° SSE
Lacrosse 5 2.4 18:15:55 10° WNW 18:20:49 47° N 18:23:30 25° ENE
FALCON 9 DEB 3.0 18:17:39 10° WNW 18:21:05 82° N 18:22:07 42° E
FALCON 9 DEB 3.3 18:19:56 10° SW 18:23:03 46° SSE 18:23:30 42° SE
Cosmos 1486 Rocket 4.1 18:17:42 10° NNW 18:23:05 83° WSW 18:28:24 10° SSE
ERBS 3.4 18:20:05 10° WNW 18:23:10 33° N 18:24:02 28° NE
Okean O Rocket 4.3 18:19:57 10° SW 18:23:24 23° W 18:26:53 10° NW
Cosmos 292 Rocket 4.0 18:18:49 10° SSW 18:23:37 73° WNW 18:28:29 10° NNE
YAOGAN 1 2.4 18:20:15 10° SSE 18:24:34 77° ENE 18:28:55 10° NNW
Aureole 3 2.7 18:23:10 10° SSW 18:26:14 75° W 18:29:13 10° N
FALCON 9 DEB 3.2 18:24:06 10° SW 18:27:13 50° SSE 18:27:30 48° SE
Cosmos 1417 Rocket 4.4 18:21:32 10° S 18:27:43 68° E 18:34:01 10° NNE
Cosmos 1812 Rocket 4.2 18:27:27 10° SSE 18:35:45 - NNE 18:30:37 33° ESE
Cosmos 1455 2.9 18:28:36 10° SSE 18:31:13 35° SE 18:31:13 35° SE
Meteor 2-8 Rocket 4.4 18:26:23 10° S 18:32:31 89° W 18:38:43 10° N
Cosmos 1503 Rocket 3.9 18:27:40 10° NNW 18:32:54 75° ENE 18:37:11 16° SSE
CZ-2C R/B 3.2 18:28:57 10° SSE 18:34:45 88° ENE 18:40:23 10° NNW
CZ-4B R/B 3.5 18:34:12 10° N 18:36:59 26° WNW 18:39:42 10° SW
Cosmos 2219 4.2 18:31:41 10° NW 18:37:12 48° WSW 18:42:42 10° S
FALCON 9 DEB 3.2 18:36:05 10° SW 18:39:09 56° SSE 18:39:09 56° SSE
USA 307 3.1 18:35:05 10° WNW 18:39:21 64° SSW 18:40:52 37° SE
Cosmos 1939 Rocket 4.5 18:37:50 10° SSW 18:41:30 35° W 18:45:08 10° NNW
Geosat FO 4.5 18:41:07 43° SSE 18:42:15 89° ENE 18:45:46 10° NNW
USA 308 3.2 18:39:56 10° WNW 18:44:10 60° SSW 18:45:31 39° SSE
Cosmos 1354 Rocket 3.9 18:39:11 10° NNW 18:44:29 80° ENE 18:47:53 23° SSE
Meteor 2-10 Rocket 3.4 18:40:20 10° S 18:45:37 72° E 18:50:43 10° NNE
Cosmos 2082 3.7 18:40:18 10° NNW 18:46:04 83° WSW 18:50:45 16° SSE
Cosmos 1553 Rocket 4.0 18:39:50 10° S 18:46:12 85° W 18:52:31 10° N
Helios 1A Rocket 4.1 18:44:58 10° S 18:48:54 43° W 18:52:52 10° NNW
FALCON 9 DEB 3.5 18:47:39 10° WSW 18:50:17 53° SW 18:50:17 53° SW
Cosmos 1689 Rocket 3.6 18:48:41 10° N 18:51:22 35° WNW 18:54:03 10° SW
Cosmos 2278 Rocket 4.4 18:49:43 10° NNW 18:51:28 11° N 18:53:11 10° NNE
ATLAS 5 CENTAUR R/B 3.6 18:49:05 10° WNW 18:52:50 23° N 18:55:00 18° NNE
Meteor 2-15 Rocket 4.3 18:47:57 10° S 18:54:03 74° E 19:00:13 10° NNE
Okean-O 3.8 18:52:29 10° S 18:56:44 44° W 19:01:00 10° NNW
Cosmos 2151 3.6 18:52:59 10° N 18:56:04 41° NNE 18:56:04 41° NNE
Cosmos 1992 Rocket 3.9 18:52:18 10° SSW 18:57:27 66° ESE 18:59:49 32° NE
ARGOS 3.0 18:54:41 19° SSE 18:58:36 79° ENE 19:04:03 10° NNW
SL-08 RB Rocket 3.7 19:00:38 58° NE 19:00:38 58° NE 19:04:50 10° N
Cosmos 1400 Rocket 4.3 18:57:53 10° SW 19:01:45 38° WNW 19:05:35 10° N
Cosmos 2369 3.7 18:56:49 10° S 19:02:21 54° ESE 19:03:11 50° E
Cosmos 2058 3.8 19:01:10 10° NNW 19:05:08 47° W 19:09:04 10° SSW
Cosmos 1892 4.5 19:01:38 10° NNW 19:05:10 33° W 19:08:40 10° SSW
Cosmos 1844 Rocket 4.2 19:01:10 10° NNW 19:05:18 21° NNE 19:05:18 21° NNE
Cosmos 1656 3.7 18:59:53 10° SW 19:05:28 78° WNW 19:10:04 16° NNE
CZ-4 R/B 2.9 19:02:01 10° SSW 19:05:36 34° W 19:09:10 10° NNW
H-2A R/B 2.4 19:02:00 10° S 19:07:25 72° WSW 19:12:53 10° NNW
Ariane Rocket 3.2 19:07:51 52° NE 19:07:51 52° NE 19:12:30 10° N
Geosat 3.9 19:06:43 56° ENE 19:07:37 68° ESE 19:12:37 10° SSW
GEOS 3 Rocket 4.1 19:05:41 28° SSE 19:08:31 60° SW 19:13:52 10° NW
Cosmos 1408 3.8 19:05:18 10° NNW 19:08:46 41° W 19:11:40 14° SSW
Cosmos 1745 Rocket 4.5 19:02:37 10° NNW 19:08:49 62° W 19:15:03 10° S
Cosmos 220 Rocket 3.9 19:06:22 10° SSW 19:10:45 90° ENE 19:10:52 85° NNE
Cosmos 2227 Rocket 3.7 19:05:49 10° NW 19:10:54 35° WSW 19:15:57 10° S
CSL-04 Rocket 4.2 19:11:16 10° S 19:16:44 61° WSW 19:22:13 10° NNW
Cosmos 2263 Rocket 2.2 19:11:28 10° NNW 19:17:08 58° NE 19:17:16 58° ENE
Timation 1 Rocket 4.5 19:12:02 10° NW 19:18:02 74° WSW 19:20:34 37° SSE
Meteor 2-1 Rocket 4.4 19:19:51 10° SSW 19:25:20 67° WNW 19:30:53 10° N
SL-4 R/B 3.1 19:22:13 10° W 19:24:39 37° WSW 19:24:39 37° WSW
Cosmos 1825 3.3 19:22:40 10° NNW 19:26:16 42° W 19:26:28 41° WSW
SeaSat 1 2.8 19:26:16 49° S 19:27:21 63° WSW 19:32:18 10° NW
CZ-4C R/B 3.0 19:21:51 10° NW 19:28:25 54° NNE 19:29:36 50° ENE
NOSS 3-4 (A) 3.7 19:22:54 10° NW 19:29:46 89° NE 19:31:39 55° SE
USA 305 4.2 19:25:53 10° WNW 19:29:36 34° SW 19:29:36 34° SW
NOSS 3-4 (C) 3.7 19:23:01 10° NW 19:29:53 89° NE 19:31:43 55° SE
Cosmos 1697 Rocket 2.6 19:24:41 10° SSW 19:30:19 88° WNW 19:31:25 60° NNE
Cosmos 2184 Rocket 4.3 19:25:50 10° N 19:31:04 49° NE 19:31:04 49° NE
Cosmos 1315 Rocket 3.9 19:29:05 10° SSW 19:32:10 41° WSW 19:32:10 41° WSW
USA 306 4.4 19:32:20 10° W 19:35:44 31° SW 19:35:44 31° SW
DEBRIS 4.2 19:21:32 10° WSW 19:36:28 61° S 19:36:49 59° SSE
Cosmos 1709 Rocket 4.4 19:32:19 10° NNW 19:38:37 64° W 19:44:29 12° S
USA 215 3.1 19:39:00 68° ESE 19:39:57 89° NNE 19:46:32 10° WNW
NOSS 3-3 (A) 3.8 19:35:25 10° SW 19:41:21 86° SE 19:41:47 78° ENE
NOSS 3-3 (C) 3.8 19:35:31 10° SW 19:41:29 85° SE 19:41:53 79° ENE
SJ 16-02 3.6 19:39:55 10° N 19:41:07 17° N 19:41:07 17° N
MOS 1 Rocket 4.2 19:41:42 10° N 19:46:07 47° WNW 19:50:48 10° SW
Cosmos 1777 Rocket 4.4 19:46:38 10° NNW 19:51:06 61° WNW 19:51:06 61° WNW
ATLAS 2AS CENTAUR R/B 2.7 19:44:20 10° NW 19:52:00 86° SW 19:52:43 75° SSE
Cosmos 2074 Rocket 4.2 19:46:01 10° N 19:51:03 58° NNE 19:51:03 58° NNE
Cosmos 1980 Rocket 3.9 19:47:22 10° SSW 19:49:11 21° SSW 19:49:11 21° SSW
IRS-1A Rocket 4.3 19:53:27 72° W 19:53:27 72° W 19:58:49 10° NNW
Meteor 2-17 Rocket 4.4 19:49:19 10° NNW 19:55:02 78° NW 19:55:02 78° NW
COSMOS 2455 4.2 19:50:44 10° NNW 19:55:08 28° NNE 19:55:08 28° NNE
Resurs 01 Rocket 4.2 20:02:02 13° N 20:02:02 13° N 20:02:31 10° N
MOS 1 4.5 20:00:46 68° WNW 20:00:46 68° WNW 20:06:00 10° NNW
Cosmos 2315 Rocket 4.2 19:55:23 10° SSW 20:01:32 66° WNW 20:07:44 10° N
Lacrosse 5 2.9 19:59:16 10° WNW 20:02:41 42° NW 20:02:41 42° NW
Meteor 2-3 Rocket 4.4 20:12:09 10° NNW 20:17:02 51° WNW 20:17:02 51° WNW
Cosmos 2278 Rocket 4.4 20:33:37 10° NNW 20:35:28 17° N 20:35:28 17° N
ATLAS 5 CENTAUR R/B 4.1 20:34:28 10° NW 20:36:32 21° NNW 20:36:32 21° NNW
Cosmos 2263 Rocket 4.1 20:55:51 10° NW 20:58:58 25° WNW 20:58:58 25° WNW
CZ-4C R/B 3.9 21:10:21 10° NW 21:14:46 41° WNW 21:14:46 41° WNW
